SCP
0 0 0 0 0 0 0 0 0 0 0 0 0 0 0 0 0 0 0 0 0 0 0 0 0 0 0 1 1 1 1 1 1 1 1 2 2 2
0 0 0 0 0 0 0 0 0 0 0 0 0 0 0 0 0 0 0 0 0 0 0 0 0 0 0 1 1 1 0 1 1 1 1 2 2 2
0 0 0 0 0 0 0 0 0 0 0 0 0 0 0 0 0 0 0 0 0 0 0 0 1 1 1 1 1 0 0 0 0 1 1 2 2 2
0 0 0 0 0 0 0 0 0 0 0 0 0 0 0 0 0 0 0 0 0 0 0 0 1 1 1 1 0 0 0 0 0 1 1 2 2 2
0 0 0 0 0 0 0 0 0 0 0 0 0 0 0 0 0 0 0 0 0 0 0 0 1 1 1 1 0 0 0 0 0 0 1 1 1 2
0 0 0 0 0 0 0 0 0 0 0 0 0 0 0 0 0 0 0 0 0 0 0 0 0 0 1 0 0 0 0 0 0 0 0 0 1 1
0 0 0 0 0 0 0 0 0 0 0 0 0 0 0 0 0 0 0 0 0 0 0 0 0 0 0 0 0 0 0 0 0 0 0 0 0 0
0 0 0 0 0 0 0 0 0 0 0 0 0 0 0 0 0 0 0 0 0 0 0 0 0 0 0 0 0 0 0 0 0 0 0 0 0 0
0 0 0 0 0 0 0 0 0 0 0 0 0 0 0 0 0 0 0 0 0 0 0 0 0 0 0 0 0 0 0 0 0 0 0 0 0 0
0 0 0 0 0 0 0 0 0 0 0 0 0 0 0 0 0 0 0 0 0 0 0 0 0 0 0 0 0 0 0 0 0 0 0 0 0 0
0 0 0 0 0 0 0 0 0 0 0 0 0 0 0 0 0 0 0 0 0 0 0 0 0 0 0 0 0 0 0 0 0 0 0 0 0 0
0 0 0 0 0 0 0 0 0 0 0 0 0 0 0 0 0 0 0 0 0 0 0 0 0 0 1 1 0 0 0 0 0 0 0 0 0 0
0 0 0 0 0 0 0 0 0 0 0 0 0 0 0 0 0 0 0 0 0 0 0 0 0 0 0 1 1 0 0 0 0 0 0 0 0 0
0 0 0 0 0 0 0 0 0 0 0 0 0 0 0 0 0 0 0 0 0 0 0 0 0 0 0 0 0 0 0 0 0 0 0 0 0 0
0 0 0 0 0 0 0 0 0 0 0 0 0 0 0 0 0 0 0 0 0 0 0 0 0 0 0 0 0 0 0 0 0 0 0 0 0 0
0 0 0 0 0 0 0 0 0 0 0 0 0 0 0 0 0 0 0 0 0 0 0 0 0 0 0 0 0 0 0 1 0 0 0 0 0 0
0 0 0 0 0 0 0 0 0 0 0 0 0 0 0 0 0 0 0 0 0 0 0 0 0 0 0 0 0 0 0 0 0 0 0 0 0 0
0 0 0 0 0 0 0 0 0 0 0 0 0 0 0 0 0 0 0 0 0 0 0 0 0 0 0 0 0 0 0 0 0 0 0 0 0 0
0 0 0 0 0 0 0 0 0 0 0 0 0 0 0 0 0 0 0 0 0 0 0 0 0 0 0 0 0 0 0 0 0 0 0 0 0 0
0 0 0 0 0 0 0 0 0 0 0 0 0 0 0 0 0 0 0 0 0 0 0 0 0 0 0 0 0 0 0 0 0 0 0 0 0 0
0 0 0 0 0 0 0 0 0 0 0 0 0 0 0 0 0 0 0 0 0 0 0 0 0 0 0 0 0 0 0 0 0 0 0 0 0 0
0 0 0 0 0 0 0 0 0 0 0 0 0 0 0 0 0 0 0 0 0 0 0 0 0 0 0 0 0 0 0 0 0 0 0 0 0 0
0 0 0 0 0 0 0 0 -0 -0 0 0 0 0 0 0 0 0 0 0 0 0 0 0 0 0 0 0 0 0 0 0 0 0 0 0 0 0
Wind_Speed
8 9 8 8 8 9 9 9 10 12 12 9 8 9 9 8 13 10 7 15 20 21 22 21 21 20 20 19 17 16 14 12 13 18 25 29 30 30
7 9 8 8 8 8 9 9 8 10 11 9 10 10 11 12 17 11 10 21 21 22 23 22 22 21 20 19 17 15 13 11 12 17 24 28 29 28
9 9 10 10 9 8 9 9 8 8 11 11 9 10 12 12 11 9 10 10 11 21 23 23 23 22 21 20 18 16 14 11 11 15 22 26 27 26
10 10 11 10 11 10 9 10 9 8 9 14 11 10 12 12 11 10 11 11 10 18 23 23 23 22 21 20 18 15 13 11 11 14 19 23 25 25
11 11 11 10 11 10 11 10 9 9 7 10 11 9 9 9 10 10 11 9 11 14 19 20 21 22 21 20 18 15 13 11 11 13 15 19 22 24
12 11 10 10 12 11 10 10 10 9 8 8 10 9 8 8 8 9 10 9 10 11 13 14 17 20 20 20 19 15 13 11 11 13 14 16 19 23
11 10 10 15 18 15 12 11 10 7 8 9 9 9 8 8 8 8 10 11 11 7 6 7 8 7 10 16 17 14 14 12 12 13 15 16 18 22
9 8 10 12 16 21 24 23 19 12 10 9 8 9 9 8 8 9 9 10 8 5 6 8 7 7 7 8 13 14 14 12 12 13 15 16 18 21
8 7 8 10 13 9 15 18 16 21 20 13 10 9 10 9 10 11 9 10 10 9 8 8 6 7 7 9 15 15 14 13 13 14 14 16 18 20
7 7 8 7 10 13 9 8 8 10 14 10 9 10 10 10 10 10 10 11 12 10 9 7 6 6 6 6 13 15 14 13 13 15 15 16 16 17
6 7 8 7 17 22 11 9 11 10 14 19 20 17 19 17 13 7 6 7 8 6 4 5 4 4 4 4 8 13 14 14 14 16 17 16 16 16
6 6 12 15 19 20 9 8 12 11 10 11 12 14 11 12 15 7 5 6 6 6 3 4 4 3 2 3 4 6 8 12 15 17 18 18 18 12
7 6 7 19 20 20 16 9 14 14 10 10 9 8 7 6 6 6 6 7 7 7 5 5 4 3 2 2 3 5 6 6 8 11 16 19 19 14
7 7 9 19 19 19 14 17 21 16 9 9 8 8 8 7 7 7 8 9 10 12 11 7 5 4 3 1 2 3 5 6 7 9 11 17 17 15
7 16 18 20 17 12 17 21 16 9 9 9 9 9 9 9 9 8 7 8 9 10 11 10 8 7 4 3 1 3 4 5 7 9 11 12 11 12
8 12 17 17 14 14 14 11 8 9 10 9 10 9 9 9 8 8 7 7 5 4 5 7 7 7 4 4 2 2 3 5 8 9 9 9 9 10
8 5 5 6 6 6 7 7 7 9 10 10 10 10 10 10 9 9 7 6 4 5 5 4 4 4 2 2 1 2 3 4 7 9 11 9 8 11
10 7 7 8 8 8 8 8 7 9 9 10 10 10 10 10 10 9 8 7 6 6 5 5 4 2 1 1 4 0 1 3 5 9 10 10 9 10
6 6 7 8 7 7 7 6 6 8 7 8 9 10 10 10 10 10 10 9 8 7 6 5 4 3 1 2 5 10 2 3 5 7 8 8 8 10
5 6 7 7 7 7 7 6 6 6 7 7 8 9 9 10 10 11 10 11 9 8 7 5 5 4 2 1 2 6 12 3 6 8 9 9 9 13
7 7 7 7 7 7 6 6 5 5 7 7 7 8 9 9 9 10 10 15 10 7 8 7 6 8 3 1 4 5 8 16 13 8 10 13 12 10
7 7 7 7 7 7 6 5 5 5 6 6 7 8 8 8 9 11 11 10 9 8 8 7 7 5 3 4 7 7 7 10 17 23 19 10 9 12
6 7 7 7 6 6 5 5 5 4 5 6 6 7 8 8 8 9 9 9 9 9 8 7 6 5 5 5 8 9 13 12 11 15 15 21 29 34
Wind_Direction
297 300 303 304 305 307 304 300 300 307 309 307 310 308 309 304 302 300 291 286 282 276 272 270 269 268 271 271 272 272 272 269 242 214 204 202 203 202
295 299 302 304 305 305 307 307 302 299 301 305 307 306 308 308 306 308 301 296 286 278 272 268 266 265 267 267 266 266 263 262 243 217 205 202 201 200
295 298 299 302 302 306 305 305 305 303 301 305 304 305 305 304 302 299 295 287 282 278 272 266 262 258 259 258 259 259 257 254 241 218 207 202 200 197
289 291 293 300 300 300 300 303 301 300 303 308 309 308 305 304 302 304 302 294 284 277 272 266 260 254 253 249 250 251 249 243 237 218 209 201 197 194
278 282 284 290 293 294 297 299 299 304 300 300 305 306 306 309 314 311 307 298 290 281 274 267 260 251 247 245 244 244 239 234 229 215 204 197 192 190
269 272 276 281 283 287 297 302 305 304 301 300 302 305 307 313 320 321 317 312 302 291 278 273 264 251 243 239 236 234 230 227 225 215 202 192 188 186
268 268 274 290 302 309 314 311 310 307 308 303 302 305 308 317 318 317 312 312 301 278 284 278 270 249 231 233 230 225 221 222 222 213 201 191 187 185
279 273 278 292 302 317 318 319 325 320 311 304 302 302 302 303 304 305 308 311 306 318 327 294 275 253 227 216 213 210 209 213 213 206 196 191 187 185
287 284 294 301 314 298 308 322 322 320 317 310 302 294 291 290 291 293 292 293 284 291 303 283 261 251 233 218 204 203 202 204 203 196 187 185 184 184
290 285 287 291 301 310 317 316 305 304 307 308 292 287 286 281 272 276 284 289 283 268 246 259 258 248 237 210 199 197 197 201 199 190 184 180 175 176
304 306 313 301 311 327 334 320 315 309 320 323 321 317 315 313 308 296 291 294 293 286 259 250 260 251 229 202 195 193 193 198 198 188 180 177 171 167
320 322 327 324 327 335 335 322 318 323 330 324 320 316 311 305 309 300 282 279 282 286 303 314 286 273 220 194 183 184 187 195 193 185 177 172 166 165
333 327 315 328 338 341 342 327 331 344 334 321 318 314 309 299 291 277 261 256 257 262 291 328 302 293 264 190 177 181 179 178 181 179 173 169 169 167
332 321 319 338 347 347 344 341 349 349 332 328 328 327 324 318 306 292 275 258 246 249 262 271 273 287 299 232 172 166 171 170 171 171 170 168 170 163
332 339 344 349 350 344 343 350 351 341 337 338 335 332 326 317 311 305 293 280 264 250 250 244 245 263 269 265 222 160 155 166 169 164 164 169 171 162
331 336 343 345 348 346 348 347 343 343 347 339 334 331 329 329 328 327 323 320 309 293 263 249 247 247 255 263 239 176 158 165 167 162 155 155 158 159
347 336 330 333 340 339 341 343 343 345 348 343 342 341 341 341 340 339 333 334 332 327 324 312 277 246 239 317 253 176 157 157 160 154 152 148 154 157
359 340 339 339 341 342 342 341 342 347 347 346 346 346 346 344 344 343 347 345 342 335 330 324 320 315 297 40 21 27 127 139 149 149 148 143 147 150
357 337 335 334 334 335 334 334 335 338 340 344 347 347 347 348 349 350 351 351 347 340 334 334 339 350 44 44 4 9 30 135 132 131 137 131 135 146
343 336 334 332 331 331 332 331 331 336 342 345 346 348 349 350 352 353 352 352 347 342 342 347 355 359 14 39 31 7 11 73 125 120 116 105 94 107
339 335 332 330 329 328 327 327 329 334 341 343 345 347 350 351 353 352 350 351 354 345 346 343 329 328 306 31 77 45 29 42 68 107 126 124 118 118
333 331 328 326 326 325 325 327 330 336 343 347 346 347 348 351 353 352 351 350 349 344 336 330 333 349 27 82 94 85 66 57 55 56 56 84 128 137
325 324 321 322 322 323 325 330 334 338 345 348 348 348 349 352 351 351 350 350 349 349 349 349 359 23 42 74 94 91 82 75 72 69 61 78 94 103